Location: Mannheim
(49.4880°N, 8.4650°E)
Time: 05:04:16
(UTC+02:00)

ACS3 Solar Sail - Pass Details

Date: 23 September 2024
Orbit: 963 x 1036 km, 97.4° (Epoch: 04 October)

Event Time Altitude Azimuth Distance (km) Brightness Sun altitude
Exits shadow 22:32:45 16° 212° (SSW) 2,425 3.8 -29.6°
Maximum altitude 22:37:09 34° 268° (W) 1,655 3.3 -30.2°
Drops below altitude 10° 22:42:54 10° 332° (NNW) 2,839 5.0 -30.9°
Sets 22:45:43 0° 342° (NNW) 3,789 5.8 -31.2°
